Location: Arbon
(43.0005°N, 0.7472°E)
Time: 01:29:36
(UTC+00:00)

Vanguard 3 - Pass Details

Date: 03 December 2020
Orbit: 508 x 3262 km, 33.3° (Epoch: 22 January)

Event Time Altitude Azimuth Distance (km) Brightness Sun altitude
Rises 18:15:49 0° 217° (SW) 3,413 11.1 -20.0°
Reaches altitude 10° 18:20:21 10° 185° (S) 2,047 9.4 -20.9°
Maximum altitude 18:21:50 11° 165° (SSE) 1,845 8.9 -21.1°
Enters shadow 18:22:26 11° 157° (SSE) 1,823 8.8 -21.2°
